Home   Weather   Saguenay   Past weeks

Flag for Canada Past Weather in Saguenay, Quebec, Canada — Yesterday and Last 2 Weeks

Now
60 °F

Cool.


Feels Like: 60 °F
Forecast: 47 / 65 °F
Wind: 5 mph from South

Location: Jonquiere Airport

Current Time: May 24, 2017 at 1:45:50 pm

Latest Report: May 24, 2017 at 12:00 pm


Visibility: N/A

Pressure: 29.86 "Hg

Humidity: 65%

Dew Point: 47 °F

Location of SaguenayLocation

Past Weather in Saguenay — Graph

°F

Saguenay Temperature Yesterday

Maximum temperature yesterday: 61 °F (at 6:00 pm)
Minimum temperature yesterday: 49 °F (at 2:00 am)
Average temperature yesterday: 55 °F

High & Low Weather Summary for the Past Weeks

 TemperatureHumidityPressure
High72 °F (May 15, 5:00 pm)100% (May 12, 4:00 am)30.51 "Hg (May 12, 4:00 am)
Low35 °F (May 21, 5:00 am)21% (May 15, 3:00 pm)29.56 "Hg (May 18, 3:00 pm)
Average53 °F65%29.97 "Hg
* Reported May 9 12:00 pm — May 24 12:00 pm, Saguenay. Weather by CustomWeather, © 2017

Note: Actual official high and low records may vary slightly from our data, if they occured in-between our weather recording intervals... More about our weather records

Advertising

Saguenay Weather History for the Previous 24 Hours

Scroll right to see more
 ConditionsComfort  
Time TempWeatherWind HumidityBarometerVisibility
12:00 pm
Wed, May 24
60 °FCool.5 mph65%29.86 "HgN/A
11:00 am59 °FCool.3 mph71%29.86 "HgN/A
10:00 am57 °FCool.2 mph73%29.86 "HgN/A
9:00 am55 °FCool.5 mph79%29.85 "HgN/A
8:00 am53 °FCool.6 mph85%29.84 "HgN/A
7:00 am52 °FCool.5 mph86%29.83 "HgN/A
6:00 am49 °FCool.6 mph87%29.82 "HgN/A
5:00 am49 °FCool.7 mph90%29.81 "HgN/A
4:00 am51 °FCool.7 mph84%29.78 "HgN/A
3:00 am52 °FCool.6 mph82%29.80 "HgN/A
2:00 am55 °FCool.9 mph77%29.80 "HgN/A
1:00 am53 °FCool.9 mph79%29.79 "HgN/A
12:00 am56 °FCool.9 mph70%29.80 "HgN/A
11:00 pm
Tue, May 23
55 °FCool.1 mph78%29.80 "HgN/A
10:00 pm57 °FCool.6 mph67%29.80 "HgN/A
9:00 pm58 °FCool.7 mph63%29.79 "HgN/A
8:00 pm60 °FCool.9 mph61%29.77 "HgN/A
7:00 pm60 °FCool.6 mph70%29.76 "HgN/A
6:00 pm61 °FCool.12 mph61%29.74 "HgN/A
5:00 pm60 °FCool.12 mph72%29.74 "HgN/A
4:00 pm61 °FCool.13 mph62%29.73 "HgN/A
3:00 pm61 °FCool.13 mph64%29.74 "HgN/A
2:00 pm59 °FCool.12 mph72%29.74 "HgN/A
1:00 pm59 °FCool.14 mph68%29.74 "HgN/A
Weather by CustomWeather, © 2017

See weather overviewHow to use our weather pages